User: anonymous   Login
Location: Melbourne
(37.8170°S, 144.9670°E)
Time: 15:31:23
(UTC+11:00)
Language:

Aureole 2 Rocket - Orbit

View from above orbital plane
View from above orbital plane
View from above satellite
View from above satellite

Ground track
Ground track

The orbit data is extracted from the following two-line orbital elements,

1 07004U 73107B   17055.14891447  .00011061  00000-0  17435-3 0  9997
2 07004  73.9374 308.3358 0187217 207.4681 151.6537 15.36097102219824
Epoch (UTC): 24 February 2017 03:34:26
Eccentricity: 0.0187217
inclination: 73.9374°
perigee height: 329 km
apogee height: 585 km
right ascension of ascending node: 308.3358°
argument of perigee: 207.4681°
revolutions per day: 15.36097102
mean anomaly at epoch: 151.6537°
orbit number at epoch: 21982

The dashed part of the orbit path shows where the satellite is in the earth's shadow,  

DLR